DW1143 Weather Reports


time (UTC)temp
C
wind
direction
speed
KPH
gust
KPH
rain 1hr
cm
rain 24hr
cm
rain mn
cm
humidity
%
barometer
mb
20260510202306 12 63 0.0 4.8 0.00 0.00 0.00 62 1014.0
20260510200804 12 74 0.0 4.8 0.00 0.00 0.00 61 1013.9
20260510200304 12 74 3.2 4.8 0.00 0.00 0.00 60 1013.9
20260510195804 12 91 1.6 8.0 0.00 0.00 0.00 60 1013.9
20260510195306 12 91 1.6 4.8 0.00 0.00 0.00 59 1013.9
20260510194804 13 76 1.6 4.8 0.00 0.00 0.00 58 1014.0
20260510193304 13 60 3.2 8.0 0.00 0.00 0.00 57 1014.0
20260510192804 13 86 4.8 8.0 0.00 0.00 0.00 56 1014.0
20260510192306 13 55 3.2 4.8 0.00 0.00 0.00 57 1013.9
20260510191804 13 91 0.0 4.8 0.00 0.00 0.00 58 1013.9
20260510191304 13 83 1.6 4.8 0.00 0.00 0.00 59 1013.9
20260510190804 13 70 1.6 4.8 0.00 0.00 0.00 58 1013.9
20260510185804 13 66 6.4 14.5 0.00 0.00 0.00 57 1013.9
20260510185306 13 67 3.2 9.7 0.00 0.00 0.00 57 1013.8
20260510184804 13 82 1.6 11.3 0.00 0.00 0.00 57 1013.8
20260510184303 13 70 1.6 8.0 0.00 0.00 0.00 56 1013.8
20260510183804 13 59 3.2 8.0 0.00 0.00 0.00 56 1013.8
20260510183304 14 35 3.2 11.3 0.00 0.00 0.00 56 1013.8
20260510182804 14 83 3.2 8.0 0.00 0.00 0.00 56 1013.8
20260510182306 14 57 1.6 4.8 0.00 0.00 0.00 56 1013.9
20260510181804 14 81 4.8 19.3 0.00 0.00 0.00 56 1013.9
20260510180804 14 90 4.8 9.7 0.00 0.00 0.00 56 1013.9
20260510180304 14 89 4.8 16.1 0.00 0.00 0.00 56 1013.9
20260510175804 14 93 1.6 11.3 0.00 0.00 0.00 57 1014.0
20260510175306 14 82 8.0 19.3 0.00 0.00 0.00 57 1014.0
20260510174804 14 84 3.2 11.3 0.00 0.00 0.00 57 1014.0
20260510174304 14 71 1.6 9.7 0.00 0.00 0.00 57 1014.1
20260510173804 14 89 4.8 14.5 0.00 0.00 0.00 56 1014.0
20260510173304 15 76 4.8 11.3 0.00 0.00 0.00 57 1014.1
20260510172804 15 87 4.8 14.5 0.00 0.00 0.00 57 1014.1
20260510171804 15 64 3.2 11.3 0.00 0.00 0.00 60 1014.2
20260510171304 15 54 4.8 19.3 0.00 0.00 0.00 59 1014.2
20260510170804 15 53 8.0 16.1 0.00 0.00 0.00 58 1014.2
20260510170304 15 18 1.6 9.7 0.00 0.00 0.00 59 1014.3
20260510165804 14 57 3.2 4.8 0.00 0.00 0.00 61 1014.3
20260510165306 14 73 4.8 9.7 0.00 0.00 0.00 60 1014.3
20260510164804 14 63 4.8 14.5 0.00 0.00 0.00 59 1014.4
20260510164304 14 73 6.4 16.1 0.00 0.00 0.00 59 1014.4
20260510163804 15 74 6.4 16.1 0.00 0.00 0.00 60 1014.5
20260510162804 15 68 4.8 16.1 0.00 0.00 0.00 60 1014.7
20260510162306 15 47 3.2 9.7 0.00 0.00 0.00 61 1014.7
20260510161804 14 30 1.6 11.3 0.00 0.00 0.00 61 1014.8
20260510161304 14 86 4.8 14.5 0.00 0.00 0.00 62 1014.9
20260510160804 14 87 6.4 11.3 0.00 0.00 0.00 62 1015.0
20260510155804 14 81 4.8 16.1 0.00 0.00 0.00 62 1015.1
20260510155306 14 18 4.8 11.3 0.00 0.00 0.00 62 1015.1
20260510154804 14 65 8.0 14.5 0.00 0.00 0.00 62 1015.2
20260510154304 14 70 4.8 16.1 0.00 0.00 0.00 64 1015.2
20260510153804 14 91 9.7 19.3 0.00 0.00 0.00 62 1015.3
20260510152804 14 39 4.8 19.3 0.00 0.00 0.00 64 1015.3
20260510152307 14 40 4.8 12.9 0.00 0.00 0.00 64 1015.4
20260510151804 14 61 6.4 12.9 0.00 0.00 0.00 64 1015.4
20260510151304 14 72 4.8 11.3 0.00 0.00 0.00 65 1015.5
20260510150804 13 103 3.2 14.5 0.00 0.00 0.00 67 1015.6
20260510145804 13 70 8.0 19.3 0.00 0.00 0.00 66 1015.7
20260510145306 13 63 4.8 14.5 0.00 0.00 0.00 66 1015.8
20260510144804 13 103 4.8 19.3 0.00 0.00 0.00 66 1015.8
20260510144303 13 42 1.6 11.3 0.00 0.00 0.00 68 1015.8
20260510143804 13 58 6.4 16.1 0.00 0.00 0.00 68 1015.9
20260510142804 13 70 8.0 19.3 0.00 0.00 0.00 68 1016.1
20260510142306 13 83 4.8 19.3 0.00 0.00 0.00 68 1016.1
20260510141303 13 106 1.6 14.5 0.00 0.00 0.00 70 1016.3
20260510140804 13 87 6.4 14.5 0.00 0.00 0.00 70 1016.3
20260510140304 13 84 4.8 11.3 0.00 0.00 0.00 69 1016.4
20260510135804 13 70 3.2 19.3 0.00 0.00 0.00 70 1016.4
20260510135306 13 61 4.8 16.1 0.00 0.00 0.00 70 1016.4
20260510134804 13 61 3.2 16.1 0.00 0.00 0.00 71 1016.4
20260510133805 12 45 4.8 16.1 0.00 0.00 0.00 71 1016.4
20260510133304 12 14 3.2 16.1 0.00 0.00 0.00 71 1016.5
20260510132804 12 77 4.8 19.3 0.00 0.00 0.00 71 1016.5
20260510132306 12 86 6.4 20.9 0.00 0.00 0.00 72 1016.5
20260510131804 12 67 8.0 19.3 0.00 0.00 0.00 72 1016.5
20260510130804 13 79 3.2 19.3 0.00 0.00 0.00 71 1016.5
20260510130304 13 16 1.6 14.5 0.00 0.00 0.00 71 1016.5
20260510125804 13 81 4.8 16.1 0.00 0.00 0.00 71 1016.6
20260510125306 13 54 1.6 16.1 0.00 0.00 0.00 72 1016.7
20260510124803 12 88 1.6 14.5 0.00 0.00 0.00 72 1016.7
20260510124304 12 70 8.0 20.9 0.00 0.00 0.00 72 1016.8
20260510123803 12 55 3.2 14.5 0.00 0.00 0.00 72 1016.9
20260510123304 12 17 4.8 12.9 0.00 0.00 0.00 72 1016.9
20260510122804 12 93 8.0 22.5 0.00 0.00 0.00 72 1016.9
20260510122306 12 34 6.4 22.5 0.00 0.00 0.00 72 1016.9
20260510121806 13 67 8.0 19.3 0.00 0.00 0.00 72 1016.9
20260510121304 13 45 4.8 16.1 0.00 0.00 0.00 72 1016.9
20260510120804 13 38 9.7 20.9 0.00 0.00 0.00 72 1016.9
20260510114804 12 64 8.0 19.3 0.00 0.00 0.00 75 1017.1
20260510114304 12 48 6.4 22.5 0.00 0.00 0.00 75 1017.1
20260510113803 12 45 3.2 16.1 0.00 0.00 0.00 76 1017.2
20260510113304 12 32 4.8 19.3 0.00 0.00 0.00 76 1017.3
20260510112804 12 80 8.0 20.9 0.00 0.00 0.00 75 1017.3
20260510112306 12 89 3.2 11.3 0.00 0.00 0.00 76 1017.3
20260510111304 12 72 8.0 20.9 0.00 0.00 0.00 75 1017.5
20260510110805 12 89 9.7 20.9 0.00 0.00 0.00 75 1017.5
20260510110304 12 83 9.7 25.7 0.00 0.00 0.00 75 1017.5
20260510105306 12 95 4.8 27.4 0.00 0.00 0.00 76 1017.6
20260510104304 12 91 11.3 24.1 0.00 0.00 0.00 76 1017.6
20260510103804 12 51 4.8 11.3 0.00 0.00 0.00 77 1017.6
20260510103304 12 37 4.8 27.4 0.00 0.00 0.00 77 1017.7
20260510102804 12 50 4.8 19.3 0.00 0.00 0.00 77 1017.8
20260510102306 12 62 4.8 14.5 0.00 0.00 0.00 77 1017.8
20260510101804 12 52 3.2 14.5 0.00 0.00 0.00 78 1017.8
20260510101303 11 90 4.8 19.3 0.00 0.00 0.00 78 1017.8
20260510100804 11 20 4.8 22.5 0.00 0.00 0.00 77 1017.8
20260510100304 11 103 9.7 25.7 0.00 0.00 0.00 78 1017.8
20260510095305 11 68 8.0 20.9 0.00 0.00 0.00 78 1017.7
20260510094304 11 84 6.4 16.1 0.00 0.00 0.00 79 1017.8
20260510093804 11 99 4.8 19.3 0.00 0.00 0.00 79 1017.8
20260510093304 11 59 6.4 24.1 0.00 0.00 0.00 79 1017.9
20260510092804 11 60 4.8 22.5 0.00 0.00 0.00 79 1017.9
20260510092306 11 78 8.0 22.5 0.00 0.00 0.00 79 1017.8
20260510091805 11 67 6.4 19.3 0.00 0.00 0.00 79 1017.9
20260510091304 11 92 11.3 27.4 0.00 0.00 0.00 78 1017.9
20260510090804 11 95 8.0 16.1 0.00 0.00 0.00 78 1018.0
20260510090304 11 73 4.8 16.1 0.00 0.00 0.00 79 1017.8
20260510085804 11 83 4.8 19.3 0.00 0.00 0.00 79 1017.9
20260510085306 11 73 8.0 22.5 0.00 0.00 0.00 79 1018.0
20260510084804 11 69 4.8 19.3 0.00 0.00 0.00 79 1018.1
20260510084304 11 97 9.7 19.3 0.00 0.00 0.00 78 1018.1
20260510083304 12 82 9.7 19.3 0.00 0.00 0.00 77 1018.0
20260510082804 12 82 8.0 22.5 0.00 0.00 0.00 78 1018.0
20260510082306 12 75 4.8 11.3 0.00 0.00 0.00 78 1017.9
20260510081804 12 67 3.2 14.5 0.00 0.00 0.00 80 1017.9
20260510080804 12 32 4.8 19.3 0.00 0.00 0.00 79 1017.9
20260510080304 12 64 1.6 9.7 0.00 0.00 0.00 80 1017.9
20260510075803 11 38 4.8 19.3 0.00 0.00 0.00 80 1017.9
20260510075306 11 88 4.8 19.3 0.00 0.00 0.00 80 1017.9
20260510074804 11 67 1.6 14.5 0.00 0.00 0.00 80 1017.9
20260510074303 11 37 3.2 19.3 0.00 0.00 0.00 80 1017.9
20260510073804 11 70 3.2 16.1 0.00 0.00 0.00 81 1017.9
20260510073304 11 47 1.6 19.3 0.00 0.00 0.00 81 1017.9
20260510072804 11 80 4.8 19.3 0.00 0.00 0.00 81 1017.9
20260510072305 11 76 4.8 16.1 0.00 0.00 0.00 81 1017.8
20260510071804 11 56 8.0 22.5 0.00 0.00 0.00 81 1017.8
20260510071304 11 77 8.0 24.1 0.00 0.00 0.00 81 1017.8
20260510070804 11 77 3.2 14.5 0.00 0.00 0.00 81 1017.7
20260510070304 11 75 4.8 11.3 0.00 0.00 0.00 81 1017.7
20260510065804 11 83 4.8 16.1 0.00 0.00 0.00 81 1017.7
20260510065306 11 89 3.2 11.3 0.00 0.00 0.00 82 1017.7
20260510064804 11 88 3.2 14.5 0.00 0.00 0.00 82 1017.7
20260510064304 11 89 4.8 19.3 0.00 0.00 0.00 81 1017.7
20260510063303 11 65 3.2 19.3 0.00 0.00 0.00 82 1017.6
20260510062804 11 66 9.7 19.3 0.00 0.00 0.00 81 1017.6
20260510062306 11 82 4.8 19.3 0.00 0.00 0.00 81 1017.6
20260510061304 11 88 8.0 19.3 0.00 0.00 0.00 82 1017.6
20260510060804 11 81 4.8 20.9 0.00 0.00 0.00 83 1017.5
20260510060304 11 88 6.4 19.3 0.00 0.00 0.00 83 1017.4
20260510055804 10 72 4.8 19.3 0.00 0.00 0.00 84 1017.5
20260510054804 10 69 6.4 19.3 0.00 0.00 0.00 84 1017.4
20260510053803 10 76 9.7 19.3 0.00 0.00 0.00 85 1017.4
20260510053304 10 73 9.7 20.9 0.00 0.00 0.00 85 1017.4
20260510052804 10 79 6.4 20.9 0.00 0.00 0.00 85 1017.5
20260510052306 10 81 4.8 16.1 0.00 0.00 0.00 85 1017.5
20260510051804 10 84 9.7 16.1 0.00 0.00 0.00 85 1017.5
20260510051304 10 74 6.4 19.3 0.00 0.00 0.00 85 1017.5
20260510050804 10 72 8.0 19.3 0.00 0.00 0.00 85 1017.6
20260510050304 10 81 4.8 14.5 0.00 0.00 0.00 85 1017.6
20260510045804 10 94 9.7 19.3 0.00 0.00 0.00 85 1017.6
20260510045306 10 88 4.8 19.3 0.00 0.00 0.00 85 1017.6
20260510044804 10 85 8.0 20.9 0.00 0.00 0.00 84 1017.5
20260510044304 10 96 8.0 20.9 0.00 0.00 0.00 84 1017.4
20260510043804 10 90 8.0 16.1 0.00 0.00 0.00 84 1017.5
20260510043304 10 90 8.0 16.1 0.00 0.00 0.00 84 1017.5
20260510042804 10 86 4.8 19.3 0.00 0.00 0.00 84 1017.6
20260510042306 10 76 9.7 19.3 0.00 0.00 0.00 84 1017.6
20260510041804 10 86 6.4 19.3 0.00 0.00 0.00 84 1017.6
20260510041303 10 91 4.8 16.1 0.00 0.00 0.00 84 1017.6
20260510040804 10 91 8.0 25.7 0.00 0.00 0.00 84 1017.6
20260510040304 10 82 3.2 14.5 0.00 0.00 0.00 83 1017.7
20260510035804 10 77 4.8 19.3 0.00 0.00 0.00 83 1017.7
20260510035306 10 54 8.0 19.3 0.00 0.00 0.00 83 1017.6
20260510034804 10 88 4.8 14.5 0.00 0.00 0.00 83 1017.7
20260510034304 10 76 4.8 25.7 0.00 0.00 0.00 83 1017.7
20260510033803 10 84 8.0 20.9 0.00 0.00 0.00 83 1017.7
20260510033304 10 78 4.8 16.1 0.00 0.00 0.00 83 1017.8
20260510032803 10 89 6.4 19.3 0.00 0.00 0.00 83 1017.8
20260510032306 10 81 3.2 16.1 0.00 0.00 0.00 83 1017.9
20260510031804 10 84 6.4 16.1 0.00 0.00 0.00 83 1017.9
20260510031304 10 87 8.0 19.3 0.00 0.00 0.00 82 1017.9
20260510030803 10 88 3.2 19.3 0.00 0.00 0.00 82 1017.9
20260510030304 10 74 4.8 20.9 0.00 0.00 0.00 82 1017.9
20260510025306 10 80 9.7 20.9 0.00 0.00 0.00 82 1017.9
20260510024804 10 81 6.4 20.9 0.00 0.00 0.00 82 1017.8
20260510024303 10 93 6.4 16.1 0.00 0.00 0.00 82 1017.8
20260510023804 10 78 9.7 20.9 0.00 0.00 0.00 82 1017.8
20260510023304 10 79 8.0 25.7 0.00 0.00 0.00 82 1017.8
20260510022804 10 72 9.7 24.1 0.00 0.00 0.00 82 1017.8
20260510021804 10 88 9.7 29.0 0.00 0.00 0.00 82 1017.9
20260510020804 10 74 9.7 25.7 0.00 0.00 0.00 82 1017.8
20260510020304 10 91 8.0 24.1 0.00 0.00 0.00 82 1017.7
20260510015804 11 70 8.0 29.0 0.00 0.00 0.00 82 1017.7
20260510015306 11 62 11.3 27.4 0.00 0.00 0.00 82 1017.7
20260510014804 11 48 9.7 32.2 0.00 0.00 0.00 82 1017.7
20260510014304 11 81 11.3 25.7 0.00 0.00 0.00 82 1017.6
20260510013804 11 96 11.3 25.7 0.00 0.00 0.00 82 1017.7
20260510013304 11 63 8.0 22.5 0.00 0.00 0.00 82 1017.7
20260510012804 11 67 3.2 19.3 0.00 0.00 0.00 82 1017.7
20260510012306 11 79 4.8 19.3 0.00 0.00 0.00 82 1017.7
20260510011804 11 68 6.4 20.9 0.00 0.00 0.00 82 1017.8
20260510011304 11 80 4.8 11.3 0.00 0.00 0.00 82 1017.8
20260510010804 11 73 8.0 19.3 0.00 0.00 0.00 82 1017.7
20260510005306 11 85 11.3 29.0 0.00 0.00 0.00 82 1017.8
20260510004804 11 77 11.3 24.1 0.00 0.00 0.00 82 1017.8
20260510004304 11 84 8.0 27.4 0.00 0.00 0.00 82 1017.8
20260510002804 12 66 8.0 25.7 0.00 0.00 0.00 82 1017.9
20260510002306 12 85 6.4 19.3 0.00 0.00 0.00 82 1017.8
20260510001804 12 81 3.2 22.5 0.00 0.00 0.00 82 1017.8
20260510001303 12 94 8.0 20.9 0.00 0.00 0.00 81 1017.8
20260510000803 12 55 8.0 22.5 0.00 0.00 0.00 81 1017.9
20260509235804 12 46 3.2 19.3 0.00 0.00 0.00 81 1017.6
20260509235306 12 77 3.2 19.3 0.00 0.00 0.00 80 1017.6
20260509234803 12 91 4.8 29.0 0.00 0.00 0.00 80 1017.5
20260509234304 12 47 8.0 19.3 0.00 0.00 0.00 80 1017.3
20260509233804 12 88 6.4 20.9 0.00 0.00 0.00 80 1017.3
20260509232804 12 86 9.7 19.3 0.00 0.00 0.00 80 1017.4
20260509231804 13 67 8.0 22.5 0.00 0.00 0.00 80 1017.3
20260509231303 13 47 11.3 24.1 0.00 0.00 0.00 79 1017.2
20260509230306 13 64 9.7 24.1 0.00 0.00 0.00 79 1017.2
20260509225804 13 65 8.0 25.7 0.00 0.00 0.00 79 1017.2
20260509225306 13 74 6.4 20.9 0.00 0.00 0.00 79 1017.3
20260509224804 13 56 8.0 19.3 0.00 0.00 0.00 79 1017.2
20260509224303 13 62 8.0 19.3 0.00 0.00 0.00 79 1017.0
20260509223803 13 65 9.7 19.3 0.00 0.00 0.00 79 1017.0
20260509223304 13 63 4.8 16.1 0.00 0.00 0.00 79 1017.1
20260509222804 14 52 6.4 19.3 0.00 0.00 0.00 79 1017.0
20260509222306 14 67 4.8 20.9 0.00 0.00 0.00 79 1017.1
20260509221804 14 65 4.8 19.3 0.00 0.00 0.00 78 1017.1
20260509220803 14 53 4.8 14.5 0.00 0.00 0.00 78 1017.0
20260509220304 14 59 4.8 14.5 0.00 0.00 0.00 78 1017.0
20260509215804 14 32 1.6 19.3 0.00 0.00 0.00 78 1017.0
20260509215306 15 79 1.6 19.3 0.00 0.00 0.00 78 1017.1
20260509214803 15 77 6.4 16.1 0.00 0.00 0.00 78 1017.1
20260509214304 15 74 1.6 9.7 0.00 0.00 0.00 78 1017.1
20260509213803 15 53 1.6 11.3 0.00 0.00 0.00 78 1017.0
20260509213303 15 78 3.2 19.3 0.00 0.00 0.00 78 1017.0
20260509212803 15 80 6.4 20.9 0.00 0.00 0.00 78 1017.0
20260509212305 15 47 8.0 22.5 0.00 0.00 0.00 78 1017.0
20260509211803 15 60 4.8 19.3 0.00 0.00 0.00 78 1016.8
20260509210803 15 33 1.6 11.3 0.00 0.00 0.00 77 1016.7
20260509210304 15 90 3.2 16.1 0.00 0.00 0.00 77 1016.7
20260509205804 15 9 1.6 14.5 0.00 0.00 0.00 77 1016.6
20260509205307 15 61 3.2 19.3 0.00 0.00 0.00 77 1016.6
20260509204804 15 66 4.8 14.5 0.00 0.00 0.00 77 1016.6
20260509204304 15 46 1.6 14.5 0.00 0.00 0.00 77 1016.6
20260509203804 15 30 6.4 19.3 0.00 0.00 0.00 76 1016.5
20260509203303 15 25 8.0 19.3 0.00 0.00 0.00 76 1016.5
20260509202804 15 96 3.2 14.5 0.00 0.00 0.00 76 1016.4